Tracking 23762 objects as of 19-Oct-2021
HD Live streaming from Space Station
objects crossing your sky now

INNOSAT 2

Track INNOSAT 2 now!
10-day predictions


NORAD ID: 43738
Int'l Code: 2018-096V
Perigee: 453.4 km
Apogee: 481.0 km
Inclination: 97.4 °
Period: 93.8 minutes
Semi major axis: 6838 km
RCS: Unknown
Launch date: November 29, 2018
Source: (TBD)
Launch site: SRIHARIKOTA (SRI)
aabbcc
Your satellite tracking list
Your tracking list is empty




NASA's NSSDC Master Catalog

Two Line Element Set (TLE):
1 43738U 18096V   21292.25733453  .00010642  00000-0  31094-3 0  9990
2 43738  97.3865  14.1173 0020200 183.9657 261.2503 15.35278510161380
Source of the keplerian elements: AFSPC